Météo par heure à Juszkowo

Ce jour, 16 Juin, Mercredi

Heure Température Précipitation Vent Pression Humidité
00:00 +9°C° 0 mm 2 m/s 761 mmHg 87%
01:00 +9°C° 0 mm 2 m/s 761 mmHg 89%
02:00 +9°C° 0 mm 2 m/s 761 mmHg 89%
03:00 +9°C° 0 mm 2 m/s 761 mmHg 89%
04:00 +9°C° 0 mm 2 m/s 761 mmHg 89%
05:00 +12°C° 0 mm 1 m/s 761 mmHg 82%
06:00 +14°C° 0 mm 1 m/s 762 mmHg 74%
07:00 +16°C° 0 mm 1 m/s 762 mmHg 66%
08:00 +18°C° 0 mm 1 m/s 762 mmHg 62%
09:00 +20°C° 0 mm 1 m/s 762 mmHg 57%
10:00 +21°C° 0 mm 1 m/s 762 mmHg 53%
11:00 +21°C° 0 mm 1 m/s 762 mmHg 52%
12:00 +21°C° 0 mm 2 m/s 762 mmHg 51%
13:00 +21°C° 0 mm 2 m/s 762 mmHg 50%
14:00 +21°C° 0 mm 2 m/s 762 mmHg 52%
15:00 +21°C° 0 mm 3 m/s 762 mmHg 55%
16:00 +20°C° 0 mm 3 m/s 761 mmHg 58%
17:00 +19°C° 0 mm 3 m/s 761 mmHg 64%
18:00 +18°C° 0 mm 3 m/s 762 mmHg 70%
19:00 +16°C° 0 mm 2 m/s 762 mmHg 77%
20:00 +15°C° 0 mm 2 m/s 762 mmHg 78%
21:00 +14°C° 0 mm 2 m/s 762 mmHg 80%
22:00 +13°C° 0 mm 2 m/s 762 mmHg 82%
23:00 +12°C° 0 mm 2 m/s 762 mmHg 84%

Demain, 17 Juin, Jeudi

Heure Température Précipitation Vent Pression Humidité
00:00 +12°C° 0 mm 2 m/s 762 mmHg 86%
01:00 +12°C° 0 mm 2 m/s 762 mmHg 88%
02:00 +12°C° 0 mm 2 m/s 762 mmHg 89%
03:00 +12°C° 0 mm 2 m/s 762 mmHg 90%
04:00 +12°C° 0 mm 2 m/s 762 mmHg 91%
05:00 +13°C° 0 mm 3 m/s 762 mmHg 83%
06:00 +16°C° 0 mm 3 m/s 762 mmHg 76%
07:00 +18°C° 0 mm 3 m/s 762 mmHg 68%
08:00 +20°C° 0 mm 3 m/s 762 mmHg 65%
09:00 +21°C° 0 mm 4 m/s 762 mmHg 61%
10:00 +23°C° 0 mm 4 m/s 762 mmHg 58%
11:00 +25°C° 0 mm 4 m/s 762 mmHg 56%
12:00 +26°C° 0 mm 4 m/s 762 mmHg 54%
13:00 +26°C° 0 mm 5 m/s 762 mmHg 53%
14:00 +27°C° 0 mm 4 m/s 762 mmHg 54%
15:00 +27°C° 0 mm 4 m/s 762 mmHg 55%
16:00 +27°C° 0 mm 4 m/s 761 mmHg 56%
17:00 +26°C° 0 mm 4 m/s 761 mmHg 62%
18:00 +23°C° 0 mm 4 m/s 761 mmHg 68%
19:00 +22°C° 0 mm 4 m/s 761 mmHg 74%
20:00 +21°C° 0 mm 4 m/s 762 mmHg 75%
21:00 +19°C° 0 mm 4 m/s 762 mmHg 76%
22:00 +18°C° 0 mm 4 m/s 762 mmHg 77%
23:00 +17°C° 0 mm 3 m/s 762 mmHg 79%

Après-demain, 18 Juin, Vendredi

Heure Température Précipitation Vent Pression Humidité
00:00 +16°C° 0 mm 3 m/s 762 mmHg 80%
01:00 +16°C° 0 mm 3 m/s 762 mmHg 81%
02:00 +16°C° 0 mm 3 m/s 762 mmHg 82%
03:00 +14°C° 0 mm 3 m/s 762 mmHg 83%
04:00 +14°C° 0 mm 3 m/s 762 mmHg 84%
05:00 +17°C° 0 mm 3 m/s 762 mmHg 79%
06:00 +19°C° 0 mm 4 m/s 762 mmHg 74%
07:00 +21°C° 0 mm 4 m/s 762 mmHg 69%
08:00 +22°C° 0 mm 4 m/s 762 mmHg 65%
09:00 +25°C° 0 mm 5 m/s 761 mmHg 61%
10:00 +27°C° 0 mm 5 m/s 761 mmHg 56%
11:00 +27°C° 0 mm 5 m/s 761 mmHg 54%
12:00 +28°C° 0 mm 5 m/s 761 mmHg 52%
13:00 +29°C° 0 mm 5 m/s 760 mmHg 50%
14:00 +29°C° 0 mm 5 m/s 760 mmHg 52%
15:00 +29°C° 0 mm 5 m/s 760 mmHg 54%
16:00 +30°C° 0 mm 5 m/s 760 mmHg 56%
17:00 +28°C° 0 mm 4 m/s 760 mmHg 62%
18:00 +27°C° 0 mm 4 m/s 759 mmHg 68%
19:00 +26°C° 0 mm 4 m/s 759 mmHg 74%
20:00 +25°C° 0 mm 3 m/s 760 mmHg 78%
21:00 +22°C° 0 mm 3 m/s 760 mmHg 82%
22:00 +21°C° 0 mm 3 m/s 760 mmHg 86%
23:00 +20°C° 0 mm 3 m/s 760 mmHg 87%

19 Juin, Samedi

Heure Température Précipitation Vent Pression Humidité
00:00 +20°C° 0 mm 3 m/s 760 mmHg 88%
01:00 +19°C° 0 mm 3 m/s 760 mmHg 89%
02:00 +19°C° 0 mm 3 m/s 760 mmHg 90%
03:00 +19°C° 0 mm 3 m/s 760 mmHg 91%
04:00 +19°C° 0 mm 3 m/s 760 mmHg 92%
05:00 +20°C° 0 mm 4 m/s 760 mmHg 86%
06:00 +22°C° 0 mm 4 m/s 760 mmHg 80%
07:00 +23°C° 0 mm 5 m/s 760 mmHg 74%
08:00 +26°C° 0 mm 5 m/s 759 mmHg 69%
09:00 +27°C° 0 mm 5 m/s 759 mmHg 64%
10:00 +28°C° 0 mm 6 m/s 759 mmHg 60%
11:00 +29°C° 0 mm 6 m/s 759 mmHg 56%
12:00 +30°C° 0 mm 6 m/s 759 mmHg 53%
13:00 +32°C° 0 mm 6 m/s 758 mmHg 50%
14:00 +32°C° 0 mm 5 m/s 758 mmHg 52%
15:00 +32°C° 0 mm 5 m/s 758 mmHg 53%
16:00 +32°C° 0 mm 5 m/s 758 mmHg 55%
17:00 +30°C° 0 mm 5 m/s 757 mmHg 61%
18:00 +29°C° 0 mm 4 m/s 757 mmHg 66%
19:00 +27°C° 0 mm 4 m/s 757 mmHg 72%
20:00 +26°C° 0 mm 4 m/s 757 mmHg 75%
21:00 +25°C° 0 mm 4 m/s 757 mmHg 78%
22:00 +23°C° 0 mm 4 m/s 758 mmHg 80%
23:00 +23°C° 0 mm 4 m/s 758 mmHg 81%

20 Juin, Dimanche

Heure Température Précipitation Vent Pression Humidité
00:00 +24°C° 0 mm 3 m/s 758 mmHg 81%
01:00 +22°C° 0 mm 3 m/s 758 mmHg 81%
02:00 +22°C° 0 mm 3 m/s 758 mmHg 85%
03:00 +21°C° 0 mm 3 m/s 758 mmHg 88%
04:00 +20°C° 0 mm 3 m/s 758 mmHg 92%
05:00 +22°C° 0 mm 3 m/s 758 mmHg 86%
06:00 +24°C° 0 mm 3 m/s 758 mmHg 81%
07:00 +26°C° 0 mm 3 m/s 758 mmHg 75%
08:00 +27°C° 0 mm 4 m/s 758 mmHg 71%
09:00 +28°C° 0 mm 4 m/s 758 mmHg 66%
10:00 +29°C° 0 mm 5 m/s 758 mmHg 61%
11:00 +30°C° 0.5 mm 4 m/s 757 mmHg 60%
12:00 +30°C° 0.5 mm 4 m/s 757 mmHg 58%
13:00 +32°C° 0.5 mm 4 m/s 757 mmHg 57%
14:00 +30°C° 0 mm 4 m/s 757 mmHg 58%
15:00 +30°C° 0 mm 4 m/s 757 mmHg 59%
16:00 +30°C° 0 mm 4 m/s 757 mmHg 59%
17:00 +29°C° 0 mm 4 m/s 756 mmHg 64%
18:00 +28°C° 0 mm 4 m/s 756 mmHg 69%
19:00 +27°C° 0 mm 3 m/s 756 mmHg 73%
20:00 +26°C° 0 mm 3 m/s 756 mmHg 76%
21:00 +24°C° 0 mm 3 m/s 757 mmHg 78%
22:00 +22°C° 0 mm 3 m/s 757 mmHg 81%
23:00 +21°C° 0 mm 3 m/s 757 mmHg 82%

21 Juin, Lundi

Heure Température Précipitation Vent Pression Humidité
00:00 +21°C° 0 mm 3 m/s 756 mmHg 83%
01:00 +20°C° 0 mm 3 m/s 756 mmHg 84%
02:00 +20°C° 0 mm 3 m/s 756 mmHg 86%
03:00 +19°C° 0 mm 3 m/s 756 mmHg 87%
04:00 +19°C° 0 mm 2 m/s 756 mmHg 89%
05:00 +21°C° 0 mm 3 m/s 756 mmHg 83%
06:00 +22°C° 0 mm 4 m/s 756 mmHg 78%
07:00 +25°C° 0 mm 4 m/s 756 mmHg 73%
08:00 +26°C° 0 mm 5 m/s 756 mmHg 68%
09:00 +28°C° 0 mm 5 m/s 756 mmHg 63%
10:00 +29°C° 0 mm 6 m/s 756 mmHg 59%
11:00 +30°C° 0 mm 6 m/s 755 mmHg 56%
12:00 +30°C° 0 mm 6 m/s 755 mmHg 53%
13:00 +32°C° 0 mm 6 m/s 755 mmHg 50%
14:00 +32°C° 0 mm 6 m/s 755 mmHg 51%
15:00 +32°C° 0 mm 5 m/s 755 mmHg 51%
16:00 +32°C° 0 mm 5 m/s 754 mmHg 52%
17:00 +30°C° 0 mm 4 m/s 754 mmHg 58%
18:00 +29°C° 0 mm 4 m/s 754 mmHg 64%
19:00 +27°C° 0 mm 3 m/s 754 mmHg 70%
20:00 +26°C° 0 mm 3 m/s 754 mmHg 74%
21:00 +25°C° 0 mm 3 m/s 755 mmHg 77%
22:00 +22°C° 0 mm 3 m/s 755 mmHg 81%
23:00 +22°C° 0 mm 3 m/s 755 mmHg 82%
Voir plus

Nous avons besoin de votre consentement

Meteoprog et ses fournisseurs de services peuvent stocker et accéder à des données personnelles telles que des cookies, des identifiants d'appareils ou d'autres technologies similaires sur votre appareil et traiter ces données pour personnaliser le contenu et les publicités, ainsi que pour fournir des fonctionnalités de médias sociaux et analyser le trafic.

  • Stocker et/ou accéder à des informations sur votre appareil

    Des cookies, des identifiants d'appareils ou d'autres informations peuvent être stockés ou accessibles sur votre appareil aux fins indiquées ci-dessus.

  • Annonces et contenus personnalisés, mesure des annonces et des contenus, connaissance de l'audience et développement de produits

    Les annonces et le contenu peuvent être personnalisés en fonction d'un profil. D'autres données peuvent être ajoutées pour mieux personnaliser les annonces et le contenu. Les performances des publicités et du contenu peuvent être mesurées. Il est possible d'obtenir des informations sur le public qui a vu les publicités et le contenu. Ces données peuvent être utilisées pour développer ou améliorer l'expérience de l'utilisateur, les systèmes et les logiciels.

En cliquant sur "J'accepte", vous autorisez l'utilisation de cookies, des identifiants d'appareils, des balises web ou d'autres technologies similaires. Vos paramètres peuvent être modifiés dans le navigateur de votre appareil.

Dans certains cas, des intérêts légitimes peuvent être invoqués plutôt qu'un consentement. Vous pouvez en savoir plus à ce sujet dans notre Politique de confidentialité et de cookies.